Find Starlink 30936

NORAD ID: 58534 Int'l Des: 2023-192 Owner: SPXS Country: US Constellation: starlink operational
LEOCIRCULAR

实时位置

正在加载3D地球...

关于 Starlink 30936

正在加载描述...

即将过境

Passes for default location (London). Set your location on the main map for personalized predictions.

高度历史

Loading altitude history...

两行轨道根数

1 58534U 23192D 26127.19541745 .00000367 00000-0 24503-4 0 9990
2 58534 53.1597 141.0170 0001082 89.9183 270.1941 15.30195336135087
Epoch: May 7, 2026 • Age: 6 hours

当前状态

高度 475.2 km
速度 7.63 km/s
星下点 12.53°N, 118.59°E
发射日期 Dec 8, 2023
运行时间 2.4 years
类型 internet

技术详情

分类 Payload
质量 730.00 kg
干质量 700.00 kg
总质量 730.00 kg
长度 0.30 m
直径 4.10 m
跨度 29.00 m
形状 Box + pan
制造商 SPXS
平台类型 Starlink V2M
阶段状态 In Orbit
所有者/国家 SPXS/US

Most Searched